Year,Month,Day,Hour,Minute,Value (Times are PST for temperature in C)
2017,11,27,00,00,7.10
2017,11,27,00,01,7.00
2017,11,27,00,02,7.00
2017,11,27,00,03,6.90
2017,11,27,00,04,6.90
2017,11,27,00,05,6.80
2017,11,27,00,06,6.80
2017,11,27,00,07,6.80
2017,11,27,00,08,6.70
2017,11,27,00,09,6.70
2017,11,27,00,10,6.60
2017,11,27,00,11,6.60
2017,11,27,00,12,6.50
2017,11,27,00,13,6.50
2017,11,27,00,14,6.40
2017,11,27,00,15,6.40
2017,11,27,00,16,6.40
2017,11,27,00,17,6.30
2017,11,27,00,18,6.30
2017,11,27,00,19,6.30
2017,11,27,00,20,6.20
2017,11,27,00,21,6.20
2017,11,27,00,22,6.20
2017,11,27,00,23,6.20
2017,11,27,00,24,6.20
2017,11,27,00,25,6.30
2017,11,27,00,26,6.30
2017,11,27,00,27,6.30
2017,11,27,00,28,6.30
2017,11,27,00,29,6.30
2017,11,27,00,30,6.30
2017,11,27,00,31,6.30
2017,11,27,00,32,6.30
2017,11,27,00,33,6.20
2017,11,27,00,34,6.20
2017,11,27,00,35,6.20
2017,11,27,00,36,6.20
2017,11,27,00,37,6.20
2017,11,27,00,38,6.20
2017,11,27,00,39,6.20
2017,11,27,00,40,6.20
2017,11,27,00,41,6.20
2017,11,27,00,42,6.20
2017,11,27,00,43,6.20
2017,11,27,00,44,6.30
2017,11,27,00,45,6.30
2017,11,27,00,46,6.30
2017,11,27,00,47,6.30
2017,11,27,00,48,6.30
2017,11,27,00,49,6.20
2017,11,27,00,50,6.20
2017,11,27,00,51,6.20
2017,11,27,00,52,6.20
2017,11,27,00,53,6.10
2017,11,27,00,54,6.00
2017,11,27,00,55,6.00
2017,11,27,00,56,5.90
2017,11,27,00,57,5.80
2017,11,27,00,58,5.80
2017,11,27,00,59,5.80
2017,11,27,01,00,5.70
2017,11,27,01,01,5.70
2017,11,27,01,02,5.60
2017,11,27,01,03,5.50
2017,11,27,01,04,5.50
2017,11,27,01,05,5.40
2017,11,27,01,06,5.40
2017,11,27,01,07,5.30
2017,11,27,01,08,5.30
2017,11,27,01,09,5.20
2017,11,27,01,10,5.10
2017,11,27,01,11,5.00
2017,11,27,01,12,4.90
2017,11,27,01,13,4.80
2017,11,27,01,14,4.80
2017,11,27,01,15,4.70
2017,11,27,01,16,4.70
2017,11,27,01,17,4.70
2017,11,27,01,18,4.60
2017,11,27,01,19,4.60
2017,11,27,01,20,4.60
2017,11,27,01,21,4.50
2017,11,27,01,22,4.50
2017,11,27,01,23,4.50
2017,11,27,01,24,4.40
2017,11,27,01,25,4.40
2017,11,27,01,26,4.30
2017,11,27,01,27,4.30
2017,11,27,01,28,4.30
2017,11,27,01,29,4.20
2017,11,27,01,30,4.20
2017,11,27,01,31,4.20
2017,11,27,01,32,4.10
2017,11,27,01,33,4.10
2017,11,27,01,34,4.00
2017,11,27,01,35,4.00
2017,11,27,01,36,3.90
2017,11,27,01,37,3.80
2017,11,27,01,38,3.80
2017,11,27,01,39,3.70
2017,11,27,01,40,3.70
2017,11,27,01,41,3.60
2017,11,27,01,42,3.50
2017,11,27,01,43,3.50
2017,11,27,01,44,3.40
2017,11,27,01,45,3.40
2017,11,27,01,46,3.30
2017,11,27,01,47,3.30
2017,11,27,01,48,3.30
2017,11,27,01,49,3.20
2017,11,27,01,50,3.20
2017,11,27,01,51,3.20
2017,11,27,01,52,3.10
2017,11,27,01,53,3.10
2017,11,27,01,54,3.10
2017,11,27,01,55,3.10
2017,11,27,01,56,3.00
2017,11,27,01,57,3.00
2017,11,27,01,58,3.00
2017,11,27,01,59,3.00
2017,11,27,02,00,3.00
2017,11,27,02,01,3.00
2017,11,27,02,02,3.00
2017,11,27,02,03,2.90
2017,11,27,02,04,2.90
2017,11,27,02,05,2.80
2017,11,27,02,06,2.80
2017,11,27,02,07,2.80
2017,11,27,02,08,2.80
2017,11,27,02,09,2.70
2017,11,27,02,10,2.70
2017,11,27,02,11,2.70
2017,11,27,02,12,2.70
2017,11,27,02,13,2.70
2017,11,27,02,14,2.60
2017,11,27,02,15,2.60
2017,11,27,02,16,2.60
2017,11,27,02,17,2.60
2017,11,27,02,18,2.60
2017,11,27,02,19,2.60
2017,11,27,02,20,2.50
2017,11,27,02,21,2.50
2017,11,27,02,22,2.50
2017,11,27,02,23,2.40
2017,11,27,02,24,2.40
2017,11,27,02,25,2.40
2017,11,27,02,26,2.40
2017,11,27,02,27,2.40
2017,11,27,02,28,2.40
2017,11,27,02,29,2.40
2017,11,27,02,30,2.40
2017,11,27,02,31,2.40
2017,11,27,02,32,2.40
2017,11,27,02,33,2.40
2017,11,27,02,34,2.40
2017,11,27,02,35,2.40
2017,11,27,02,36,2.20
2017,11,27,02,37,2.20
2017,11,27,02,38,2.20
2017,11,27,02,39,2.10
2017,11,27,02,40,2.10
2017,11,27,02,41,2.10
2017,11,27,02,42,2.00
2017,11,27,02,43,2.00
2017,11,27,02,44,2.00
2017,11,27,02,45,1.90
2017,11,27,02,46,1.90
2017,11,27,02,47,1.90
2017,11,27,02,48,1.90
2017,11,27,02,49,1.80
2017,11,27,02,50,1.80
2017,11,27,02,51,1.80
2017,11,27,02,52,1.80
2017,11,27,02,53,1.80
2017,11,27,02,54,1.80
2017,11,27,02,55,1.80
2017,11,27,02,56,1.80
2017,11,27,02,57,1.80
2017,11,27,02,58,1.80
2017,11,27,02,59,1.80
2017,11,27,03,00,1.80
2017,11,27,03,01,1.80
2017,11,27,03,02,1.80
2017,11,27,03,03,1.70
2017,11,27,03,04,1.70
2017,11,27,03,05,1.70
2017,11,27,03,06,1.70
2017,11,27,03,07,1.70
2017,11,27,03,08,1.70
2017,11,27,03,09,1.70
2017,11,27,03,10,1.70
2017,11,27,03,11,1.70
2017,11,27,03,12,1.70
2017,11,27,03,13,1.70
2017,11,27,03,14,1.70
2017,11,27,03,15,1.70
2017,11,27,03,16,1.70
2017,11,27,03,17,1.70
2017,11,27,03,18,1.70
2017,11,27,03,19,1.70
2017,11,27,03,20,1.70
2017,11,27,03,21,1.70
2017,11,27,03,22,1.70
2017,11,27,03,23,1.70
2017,11,27,03,24,1.70
2017,11,27,03,25,1.70
2017,11,27,03,26,1.70
2017,11,27,03,27,1.70
2017,11,27,03,28,1.70
2017,11,27,03,29,1.60
2017,11,27,03,30,1.60
2017,11,27,03,31,1.60
2017,11,27,03,32,1.60
2017,11,27,03,33,1.60
2017,11,27,03,34,1.50
2017,11,27,03,35,1.50
2017,11,27,03,36,1.50
2017,11,27,03,37,1.40
2017,11,27,03,38,1.40
2017,11,27,03,39,1.40
2017,11,27,03,40,1.40
2017,11,27,03,41,1.40
2017,11,27,03,42,1.40
2017,11,27,03,43,1.40
2017,11,27,03,44,1.40
2017,11,27,03,45,1.40
2017,11,27,03,46,1.30
2017,11,27,03,47,1.30
2017,11,27,03,48,1.30
2017,11,27,03,49,1.40
2017,11,27,03,50,1.40
2017,11,27,03,51,1.40
2017,11,27,03,52,1.40
2017,11,27,03,53,1.40
2017,11,27,03,54,1.30
2017,11,27,03,55,1.30
2017,11,27,03,56,1.30
2017,11,27,03,57,1.30
2017,11,27,03,58,1.30
2017,11,27,03,59,1.30
2017,11,27,04,00,1.30
2017,11,27,04,01,1.40
2017,11,27,04,02,1.40
2017,11,27,04,03,1.40
2017,11,27,04,04,1.50
2017,11,27,04,05,1.60
2017,11,27,04,06,1.60
2017,11,27,04,07,1.70
2017,11,27,04,08,1.80
2017,11,27,04,09,1.80
2017,11,27,04,10,1.80
2017,11,27,04,11,1.80
2017,11,27,04,12,1.80
2017,11,27,04,13,1.80
2017,11,27,04,14,1.80
2017,11,27,04,15,1.70
2017,11,27,04,16,1.70
2017,11,27,04,17,1.60
2017,11,27,04,18,1.60
2017,11,27,04,19,1.50
2017,11,27,04,20,1.50
2017,11,27,04,21,1.40
2017,11,27,04,22,1.30
2017,11,27,04,23,1.30
2017,11,27,04,24,1.30
2017,11,27,04,25,1.30
2017,11,27,04,26,1.30
2017,11,27,04,27,1.20
2017,11,27,04,28,1.20
2017,11,27,04,29,1.20
2017,11,27,04,30,1.20
2017,11,27,04,31,1.20
2017,11,27,04,32,1.20
2017,11,27,04,33,1.20
2017,11,27,04,34,1.20
2017,11,27,04,35,1.20
2017,11,27,04,36,1.20
2017,11,27,04,37,1.10
2017,11,27,04,38,1.20
2017,11,27,04,39,1.20
2017,11,27,04,40,1.20
2017,11,27,04,41,1.20
2017,11,27,04,42,1.20
2017,11,27,04,43,1.30
2017,11,27,04,44,1.30
2017,11,27,04,45,1.30
2017,11,27,04,46,1.30
2017,11,27,04,47,1.30
2017,11,27,04,48,1.30
2017,11,27,04,49,1.30
2017,11,27,04,50,1.30
2017,11,27,04,51,1.30
2017,11,27,04,52,1.30
2017,11,27,04,53,1.30
2017,11,27,04,54,1.30
2017,11,27,04,55,1.20
2017,11,27,04,56,1.20
2017,11,27,04,57,1.20
2017,11,27,04,58,1.20
2017,11,27,04,59,1.30
2017,11,27,05,00,1.20
2017,11,27,05,01,1.20
2017,11,27,05,02,1.20
2017,11,27,05,03,1.20
2017,11,27,05,04,1.10
2017,11,27,05,05,1.10
2017,11,27,05,06,1.10
2017,11,27,05,07,1.10
2017,11,27,05,08,1.10
2017,11,27,05,09,1.10
2017,11,27,05,10,1.10
2017,11,27,05,11,1.10
2017,11,27,05,12,1.10
2017,11,27,05,13,1.10
2017,11,27,05,14,1.10
2017,11,27,05,15,1.10
2017,11,27,05,16,1.10
2017,11,27,05,17,1.10
2017,11,27,05,18,1.10
2017,11,27,05,19,1.10
2017,11,27,05,20,1.10
2017,11,27,05,21,1.10
2017,11,27,05,22,1.20
2017,11,27,05,23,1.20
2017,11,27,05,24,1.20
2017,11,27,05,25,1.20
2017,11,27,05,26,1.20
2017,11,27,05,27,1.20
2017,11,27,05,28,1.20
2017,11,27,05,29,1.20
2017,11,27,05,30,1.10
2017,11,27,05,31,1.10
2017,11,27,05,32,1.00
2017,11,27,05,33,1.00
2017,11,27,05,34,1.00
2017,11,27,05,35,0.90
2017,11,27,05,36,0.90
2017,11,27,05,37,0.90
2017,11,27,05,38,0.90
2017,11,27,05,39,0.90
2017,11,27,05,40,0.90
2017,11,27,05,41,0.90
2017,11,27,05,42,0.90
2017,11,27,05,43,0.90
2017,11,27,05,44,0.90
2017,11,27,05,45,0.90
2017,11,27,05,46,0.90
2017,11,27,05,47,0.90
2017,11,27,05,48,1.00
2017,11,27,05,49,1.00
2017,11,27,05,50,1.00
2017,11,27,05,51,1.00
2017,11,27,05,52,1.00
2017,11,27,05,53,1.00
2017,11,27,05,54,1.00
2017,11,27,05,55,1.10
2017,11,27,05,56,1.10
2017,11,27,05,57,1.10
2017,11,27,05,58,1.10
2017,11,27,05,59,1.10
2017,11,27,06,00,1.10
2017,11,27,06,01,1.10
2017,11,27,06,02,1.10
2017,11,27,06,03,1.10
2017,11,27,06,04,1.10
2017,11,27,06,05,1.10
2017,11,27,06,06,1.10
2017,11,27,06,07,1.10
2017,11,27,06,08,1.10
2017,11,27,06,09,1.10
2017,11,27,06,10,1.10
2017,11,27,06,11,1.10
2017,11,27,06,12,1.10
2017,11,27,06,13,1.10
2017,11,27,06,14,1.10
2017,11,27,06,15,1.00
2017,11,27,06,16,1.00
2017,11,27,06,17,0.90
2017,11,27,06,18,0.90
2017,11,27,06,19,0.90
2017,11,27,06,20,0.90
2017,11,27,06,21,0.90
2017,11,27,06,22,0.90
2017,11,27,06,23,0.80
2017,11,27,06,24,0.80
2017,11,27,06,25,0.80
2017,11,27,06,26,0.80
2017,11,27,06,27,0.80
2017,11,27,06,28,0.80
2017,11,27,06,29,0.90
2017,11,27,06,30,0.90
2017,11,27,06,31,0.90
2017,11,27,06,32,0.90
2017,11,27,06,33,0.90
2017,11,27,06,34,0.90
2017,11,27,06,35,0.90
2017,11,27,06,36,0.90
2017,11,27,06,37,0.90
2017,11,27,06,38,0.90
2017,11,27,06,39,0.90
2017,11,27,06,40,0.90
2017,11,27,06,41,0.90
2017,11,27,06,42,0.90
2017,11,27,06,43,0.80
2017,11,27,06,44,0.80
2017,11,27,06,45,0.80
2017,11,27,06,46,0.80
2017,11,27,06,47,0.80
2017,11,27,06,48,0.80
2017,11,27,06,49,0.80
2017,11,27,06,50,0.80
2017,11,27,06,51,0.80
2017,11,27,06,52,0.80
2017,11,27,06,53,0.80
2017,11,27,06,54,0.80
2017,11,27,06,55,0.80
2017,11,27,06,56,0.80
2017,11,27,06,57,0.80
2017,11,27,06,58,0.80
2017,11,27,06,59,0.80
2017,11,27,07,00,0.90
2017,11,27,07,01,0.90
2017,11,27,07,02,0.90
2017,11,27,07,03,0.90
2017,11,27,07,04,0.90
2017,11,27,07,05,0.90
2017,11,27,07,06,0.90
2017,11,27,07,07,0.90
2017,11,27,07,08,0.90
2017,11,27,07,09,0.80
2017,11,27,07,10,0.80
2017,11,27,07,11,0.80
2017,11,27,07,12,0.80
2017,11,27,07,13,0.80
2017,11,27,07,14,0.80
2017,11,27,07,15,0.80
2017,11,27,07,16,0.80
2017,11,27,07,17,0.80
2017,11,27,07,18,0.90
2017,11,27,07,19,0.90
2017,11,27,07,20,0.90
2017,11,27,07,21,0.90
2017,11,27,07,22,0.90
2017,11,27,07,23,0.90
2017,11,27,07,24,0.90
2017,11,27,07,25,0.90
2017,11,27,07,26,0.90
2017,11,27,07,27,1.00
2017,11,27,07,28,1.00
2017,11,27,07,29,1.00
2017,11,27,07,30,1.00
2017,11,27,07,31,1.00
2017,11,27,07,32,1.00
2017,11,27,07,33,1.00
2017,11,27,07,34,1.10
2017,11,27,07,35,1.10
2017,11,27,07,36,1.10
2017,11,27,07,37,1.10
2017,11,27,07,38,1.10
2017,11,27,07,39,1.10
2017,11,27,07,40,1.10
2017,11,27,07,41,1.10
2017,11,27,07,42,1.10
2017,11,27,07,43,1.00
2017,11,27,07,44,1.00
2017,11,27,07,45,1.10
2017,11,27,07,46,1.10
2017,11,27,07,47,1.10
2017,11,27,07,48,1.10
2017,11,27,07,49,1.10
2017,11,27,07,50,1.10
2017,11,27,07,51,1.10
2017,11,27,07,52,1.10
2017,11,27,07,53,1.20
2017,11,27,07,54,1.20
2017,11,27,07,55,1.20
2017,11,27,07,56,1.20
2017,11,27,07,57,1.20
2017,11,27,07,58,1.20
2017,11,27,07,59,1.20
2017,11,27,08,00,1.20
2017,11,27,08,01,1.20
2017,11,27,08,02,1.20
2017,11,27,08,03,1.20
2017,11,27,08,04,1.20
2017,11,27,08,05,1.20
2017,11,27,08,06,1.20
2017,11,27,08,07,1.20
2017,11,27,08,08,1.20
2017,11,27,08,09,1.20
2017,11,27,08,10,1.20
2017,11,27,08,11,1.20
2017,11,27,08,12,1.20
2017,11,27,08,13,1.20
2017,11,27,08,14,1.20
2017,11,27,08,15,1.20
2017,11,27,08,16,1.20
2017,11,27,08,17,1.20
2017,11,27,08,18,1.30
2017,11,27,08,19,1.30
2017,11,27,08,20,1.30
2017,11,27,08,21,1.30
2017,11,27,08,22,1.30
2017,11,27,08,23,1.30
2017,11,27,08,24,1.40
2017,11,27,08,25,1.60
2017,11,27,08,26,1.80
2017,11,27,08,27,1.90
2017,11,27,08,28,2.10
2017,11,27,08,29,2.20
2017,11,27,08,30,2.30
2017,11,27,08,31,2.40
2017,11,27,08,32,2.40
2017,11,27,08,33,2.50
2017,11,27,08,34,2.50
2017,11,27,08,35,2.60
2017,11,27,08,36,2.60
2017,11,27,08,37,2.60
2017,11,27,08,38,2.50
2017,11,27,08,39,2.50
2017,11,27,08,40,2.40
2017,11,27,08,41,2.40
2017,11,27,08,42,2.30
2017,11,27,08,43,2.30
2017,11,27,08,44,2.30
2017,11,27,08,45,2.30
2017,11,27,08,46,2.30
2017,11,27,08,47,2.30
2017,11,27,08,48,2.30
2017,11,27,08,49,2.30
2017,11,27,08,50,2.30
2017,11,27,08,51,2.40
2017,11,27,08,52,2.40
2017,11,27,08,53,2.50
2017,11,27,08,54,2.50
2017,11,27,08,55,2.50
2017,11,27,08,56,2.60
2017,11,27,08,57,2.60
2017,11,27,08,58,2.70
2017,11,27,08,59,2.70
2017,11,27,09,00,2.80
2017,11,27,09,01,2.80
2017,11,27,09,02,2.90
2017,11,27,09,03,2.90
2017,11,27,09,04,3.00
2017,11,27,09,05,3.10
2017,11,27,09,06,3.10
2017,11,27,09,07,3.20
2017,11,27,09,08,3.30
2017,11,27,09,09,3.30
2017,11,27,09,10,3.40
2017,11,27,09,11,3.50
2017,11,27,09,12,3.50
2017,11,27,09,13,3.60
2017,11,27,09,14,3.70
2017,11,27,09,15,3.70
2017,11,27,09,16,3.80
2017,11,27,09,17,3.80
2017,11,27,09,18,3.80
2017,11,27,09,19,3.80
2017,11,27,09,20,3.80
2017,11,27,09,21,3.80
2017,11,27,09,22,3.80
2017,11,27,09,23,3.80
2017,11,27,09,24,3.80
2017,11,27,09,25,3.80
2017,11,27,09,26,3.70
2017,11,27,09,27,3.70
2017,11,27,09,28,3.70
2017,11,27,09,29,3.60
2017,11,27,09,30,3.50
2017,11,27,09,31,3.50
2017,11,27,09,32,3.40
2017,11,27,09,33,3.40
2017,11,27,09,34,3.40
2017,11,27,09,35,3.30
2017,11,27,09,36,3.30
2017,11,27,09,37,3.30
2017,11,27,09,38,3.30
2017,11,27,09,39,3.30
2017,11,27,09,40,3.30
2017,11,27,09,41,3.30
2017,11,27,09,42,3.30
2017,11,27,09,43,3.30
2017,11,27,09,44,3.30
2017,11,27,09,45,3.30
2017,11,27,09,46,3.30
2017,11,27,09,47,3.40
2017,11,27,09,48,3.40
2017,11,27,09,49,3.40
2017,11,27,09,50,3.50
2017,11,27,09,51,3.50
2017,11,27,09,52,3.60
2017,11,27,09,53,3.60
2017,11,27,09,54,3.70
2017,11,27,09,55,3.70
2017,11,27,09,56,3.80
2017,11,27,09,57,3.80
2017,11,27,09,58,3.90
2017,11,27,09,59,4.00
2017,11,27,10,00,4.10
2017,11,27,10,01,4.20
2017,11,27,10,02,4.30
2017,11,27,10,03,4.40
2017,11,27,10,04,4.60
2017,11,27,10,05,4.80
2017,11,27,10,06,4.90
2017,11,27,10,07,5.00
2017,11,27,10,08,5.10
2017,11,27,10,09,5.20
2017,11,27,10,10,5.30
2017,11,27,10,11,5.40
2017,11,27,10,12,5.50
2017,11,27,10,13,5.60
2017,11,27,10,14,5.70
2017,11,27,10,15,5.80
2017,11,27,10,16,5.80
2017,11,27,10,17,5.90
2017,11,27,10,18,5.90
2017,11,27,10,19,6.00
2017,11,27,10,20,6.10
2017,11,27,10,21,6.10
2017,11,27,10,22,6.20
2017,11,27,10,23,6.30
2017,11,27,10,24,6.40
2017,11,27,10,25,6.40
2017,11,27,10,26,6.50
2017,11,27,10,27,6.60
2017,11,27,10,28,6.70
2017,11,27,10,29,6.90
2017,11,27,10,30,7.00
2017,11,27,10,31,7.00
2017,11,27,10,32,7.10
2017,11,27,10,33,7.20
2017,11,27,10,34,7.20
2017,11,27,10,35,7.20
2017,11,27,10,36,7.20
2017,11,27,10,37,7.20
2017,11,27,10,38,7.20
2017,11,27,10,39,7.20
2017,11,27,10,40,7.20
2017,11,27,10,41,7.30
2017,11,27,10,42,7.40
2017,11,27,10,43,7.50
2017,11,27,10,44,7.60
2017,11,27,10,45,7.70
2017,11,27,10,46,7.80
2017,11,27,10,47,7.90
2017,11,27,10,48,7.90
2017,11,27,10,49,8.00
2017,11,27,10,50,8.10
2017,11,27,10,51,8.20
2017,11,27,10,52,8.30
2017,11,27,10,53,8.30
2017,11,27,10,54,8.40
2017,11,27,10,55,8.40
2017,11,27,10,56,8.50
2017,11,27,10,57,8.50
2017,11,27,10,58,8.60
2017,11,27,10,59,8.70
2017,11,27,11,00,8.80
2017,11,27,11,01,8.90
2017,11,27,11,02,8.90
2017,11,27,11,03,8.90
2017,11,27,11,04,9.00
2017,11,27,11,05,9.00
2017,11,27,11,06,9.00
2017,11,27,11,07,9.00
2017,11,27,11,08,9.00
2017,11,27,11,09,9.10
2017,11,27,11,10,9.20
2017,11,27,11,11,9.20
2017,11,27,11,12,9.20
2017,11,27,11,13,9.20
2017,11,27,11,14,9.20
2017,11,27,11,15,9.20
2017,11,27,11,16,9.20
2017,11,27,11,17,9.20
2017,11,27,11,18,9.30
2017,11,27,11,19,9.40
2017,11,27,11,20,9.50
2017,11,27,11,21,9.50
2017,11,27,11,22,9.60
2017,11,27,11,23,9.60
2017,11,27,11,24,9.60
2017,11,27,11,25,9.60
2017,11,27,11,26,9.60
2017,11,27,11,27,9.60
2017,11,27,11,28,9.60
2017,11,27,11,29,9.60
2017,11,27,11,30,9.60
2017,11,27,11,31,9.60
2017,11,27,11,32,9.60
2017,11,27,11,33,9.60
2017,11,27,11,34,9.50
2017,11,27,11,35,9.40
2017,11,27,11,36,9.30
2017,11,27,11,37,9.30
2017,11,27,11,38,9.20
2017,11,27,11,39,9.20
2017,11,27,11,40,9.20
2017,11,27,11,41,9.20
2017,11,27,11,42,9.20
2017,11,27,11,43,9.20
2017,11,27,11,44,9.20
2017,11,27,11,45,9.20
2017,11,27,11,46,9.20
2017,11,27,11,47,9.20
2017,11,27,11,48,9.20
2017,11,27,11,49,9.20
2017,11,27,11,50,9.20
2017,11,27,11,51,9.20
2017,11,27,11,52,9.20
2017,11,27,11,53,9.30
2017,11,27,11,54,9.30
2017,11,27,11,55,9.40
2017,11,27,11,56,9.50
2017,11,27,11,57,9.60
2017,11,27,11,58,9.60
2017,11,27,11,59,9.70
2017,11,27,12,00,9.80
2017,11,27,12,01,9.80
2017,11,27,12,02,9.90
2017,11,27,12,03,9.90
2017,11,27,12,04,9.90
2017,11,27,12,05,9.90
2017,11,27,12,06,10.00
2017,11,27,12,07,10.00
2017,11,27,12,08,10.00
2017,11,27,12,09,9.90
2017,11,27,12,10,9.90
2017,11,27,12,11,9.90
2017,11,27,12,12,9.80
2017,11,27,12,13,9.80
2017,11,27,12,14,9.70
2017,11,27,12,15,9.60
2017,11,27,12,16,9.60
2017,11,27,12,17,9.60
2017,11,27,12,18,9.50
2017,11,27,12,19,9.40
2017,11,27,12,20,9.30
2017,11,27,12,21,9.30
2017,11,27,12,22,9.30
2017,11,27,12,23,9.30
2017,11,27,12,24,9.30
2017,11,27,12,25,9.30
2017,11,27,12,26,9.20
2017,11,27,12,27,9.20
2017,11,27,12,28,9.10
2017,11,27,12,29,9.10
2017,11,27,12,30,9.10
2017,11,27,12,31,9.00
2017,11,27,12,32,9.00
2017,11,27,12,33,9.00
2017,11,27,12,34,8.90
2017,11,27,12,35,8.90
2017,11,27,12,36,8.90
2017,11,27,12,37,8.80
2017,11,27,12,38,8.80
2017,11,27,12,39,8.80
2017,11,27,12,40,8.80
2017,11,27,12,41,8.80
2017,11,27,12,42,8.80
2017,11,27,12,43,8.80
2017,11,27,12,44,8.80
2017,11,27,12,45,8.80
2017,11,27,12,46,8.80
2017,11,27,12,47,8.90
2017,11,27,12,48,8.90
2017,11,27,12,49,8.90
2017,11,27,12,50,8.90
2017,11,27,12,51,8.90
2017,11,27,12,52,8.90
2017,11,27,12,53,8.90
2017,11,27,12,54,8.90
2017,11,27,12,55,8.90
2017,11,27,12,56,8.80
2017,11,27,12,57,8.80
2017,11,27,12,58,8.80
2017,11,27,12,59,8.80
2017,11,27,13,00,8.80
2017,11,27,13,01,8.80
2017,11,27,13,02,8.80
2017,11,27,13,03,8.80
2017,11,27,13,04,8.90
2017,11,27,13,05,8.90
2017,11,27,13,06,8.90
2017,11,27,13,07,8.90
2017,11,27,13,08,8.90
2017,11,27,13,09,8.80
2017,11,27,13,10,8.80
2017,11,27,13,11,8.80
2017,11,27,13,12,8.80
2017,11,27,13,13,8.80
2017,11,27,13,14,8.80
2017,11,27,13,15,8.90
2017,11,27,13,16,8.90
2017,11,27,13,17,8.90
2017,11,27,13,18,8.90
2017,11,27,13,19,8.90
2017,11,27,13,20,9.00
2017,11,27,13,21,9.00
2017,11,27,13,22,9.00
2017,11,27,13,23,9.00
2017,11,27,13,24,9.00
2017,11,27,13,25,9.00
2017,11,27,13,26,9.00
2017,11,27,13,27,8.90
2017,11,27,13,28,8.90
2017,11,27,13,29,8.90
2017,11,27,13,30,9.00
2017,11,27,13,31,9.00
2017,11,27,13,32,9.00
2017,11,27,13,33,9.00
2017,11,27,13,34,9.00
2017,11,27,13,35,9.00
2017,11,27,13,36,9.00
2017,11,27,13,37,9.00
2017,11,27,13,38,9.00
2017,11,27,13,39,9.00
2017,11,27,13,40,9.10
2017,11,27,13,41,9.10
2017,11,27,13,42,9.10
2017,11,27,13,43,9.10
2017,11,27,13,44,9.10
2017,11,27,13,45,9.10
2017,11,27,13,46,9.10
2017,11,27,13,47,9.10
2017,11,27,13,48,9.10
2017,11,27,13,49,9.20
2017,11,27,13,50,9.20
2017,11,27,13,51,9.20
2017,11,27,13,52,9.30
2017,11,27,13,53,9.30
2017,11,27,13,54,9.30
2017,11,27,13,55,9.30
2017,11,27,13,56,9.40
2017,11,27,13,57,9.40
2017,11,27,13,58,9.40
2017,11,27,13,59,9.40
2017,11,27,14,00,9.40
2017,11,27,14,01,9.40
2017,11,27,14,02,9.40
2017,11,27,14,03,9.40
2017,11,27,14,04,9.40
2017,11,27,14,05,9.40
2017,11,27,14,06,9.40
2017,11,27,14,07,9.40
2017,11,27,14,08,9.40
2017,11,27,14,09,9.40
2017,11,27,14,10,9.40
2017,11,27,14,11,9.40
2017,11,27,14,12,9.40
2017,11,27,14,13,9.40
2017,11,27,14,14,9.40
2017,11,27,14,15,9.40
2017,11,27,14,16,9.40
2017,11,27,14,17,9.40
2017,11,27,14,18,9.40
2017,11,27,14,19,9.30
2017,11,27,14,20,9.30
2017,11,27,14,21,9.30
2017,11,27,14,22,9.30
2017,11,27,14,23,9.40
2017,11,27,14,24,9.40
2017,11,27,14,25,9.40
2017,11,27,14,26,9.40
2017,11,27,14,27,9.40
2017,11,27,14,28,9.40
2017,11,27,14,29,9.30
2017,11,27,14,30,9.30
2017,11,27,14,31,9.30
2017,11,27,14,32,9.30
2017,11,27,14,33,9.30
2017,11,27,14,34,9.30
2017,11,27,14,35,9.30
2017,11,27,14,36,9.30
2017,11,27,14,37,9.30
2017,11,27,14,38,9.30
2017,11,27,14,39,9.30
2017,11,27,14,40,9.30
2017,11,27,14,41,9.30
2017,11,27,14,42,9.20
2017,11,27,14,43,9.20
2017,11,27,14,44,9.20
2017,11,27,14,45,9.20
2017,11,27,14,46,9.20
2017,11,27,14,47,9.20
2017,11,27,14,48,9.20
2017,11,27,14,49,9.20
2017,11,27,14,50,9.20
2017,11,27,14,51,9.20
2017,11,27,14,52,9.20
2017,11,27,14,53,9.10
2017,11,27,14,54,9.10
2017,11,27,14,55,9.10
2017,11,27,14,56,9.10
2017,11,27,14,57,9.10
2017,11,27,14,58,9.10
2017,11,27,14,59,9.10
2017,11,27,15,00,9.10
2017,11,27,15,01,9.20
2017,11,27,15,02,9.10
2017,11,27,15,03,9.10
2017,11,27,15,04,9.10
2017,11,27,15,05,9.10
2017,11,27,15,06,9.10
2017,11,27,15,07,9.10
2017,11,27,15,08,9.10
2017,11,27,15,09,9.10
2017,11,27,15,10,9.10
2017,11,27,15,11,9.10
2017,11,27,15,12,9.20
2017,11,27,15,13,9.20
2017,11,27,15,14,9.20
2017,11,27,15,15,9.20
2017,11,27,15,16,9.20
2017,11,27,15,17,9.10
2017,11,27,15,18,9.10
2017,11,27,15,19,9.10
2017,11,27,15,20,9.10
2017,11,27,15,21,9.00
2017,11,27,15,22,9.00
2017,11,27,15,23,9.00
2017,11,27,15,24,8.90
2017,11,27,15,25,8.90
2017,11,27,15,26,8.90
2017,11,27,15,27,8.90
2017,11,27,15,28,8.90
2017,11,27,15,29,8.90
2017,11,27,15,30,8.90
2017,11,27,15,31,8.90
2017,11,27,15,32,8.90
2017,11,27,15,33,8.90
2017,11,27,15,34,8.90
2017,11,27,15,35,8.90
2017,11,27,15,36,8.90
2017,11,27,15,37,8.90
2017,11,27,15,38,8.90
2017,11,27,15,39,8.90
2017,11,27,15,40,8.90
2017,11,27,15,41,8.90
2017,11,27,15,42,8.90
2017,11,27,15,43,8.90
2017,11,27,15,44,8.80
2017,11,27,15,45,8.80
2017,11,27,15,46,8.80
2017,11,27,15,47,8.80
2017,11,27,15,48,8.80
2017,11,27,15,49,8.80
2017,11,27,15,50,8.80
2017,11,27,15,51,8.80
2017,11,27,15,52,8.80
2017,11,27,15,53,8.70
2017,11,27,15,54,8.70
2017,11,27,15,55,8.70
2017,11,27,15,56,8.70
2017,11,27,15,57,8.70
2017,11,27,15,58,8.70
2017,11,27,15,59,8.70
2017,11,27,16,00,8.70
2017,11,27,16,01,8.70
2017,11,27,16,02,8.70
2017,11,27,16,03,8.70
2017,11,27,16,04,8.60
2017,11,27,16,05,8.60
2017,11,27,16,06,8.60
2017,11,27,16,07,8.60
2017,11,27,16,08,8.60
2017,11,27,16,09,8.60
2017,11,27,16,10,8.60
2017,11,27,16,11,8.50
2017,11,27,16,12,8.50
2017,11,27,16,13,8.40
2017,11,27,16,14,8.40
2017,11,27,16,15,8.40
2017,11,27,16,16,8.40
2017,11,27,16,17,8.40
2017,11,27,16,18,8.40
2017,11,27,16,19,8.40
2017,11,27,16,20,8.40
2017,11,27,16,21,8.40
2017,11,27,16,22,8.40
2017,11,27,16,23,8.30
2017,11,27,16,24,8.30
2017,11,27,16,25,8.30
2017,11,27,16,26,8.20
2017,11,27,16,27,8.20
2017,11,27,16,28,8.20
2017,11,27,16,29,8.20
2017,11,27,16,30,8.20
2017,11,27,16,31,8.20
2017,11,27,16,32,8.20
2017,11,27,16,33,8.10
2017,11,27,16,34,8.10
2017,11,27,16,35,8.10
2017,11,27,16,36,8.10
2017,11,27,16,37,8.10
2017,11,27,16,38,8.10
2017,11,27,16,39,8.10
2017,11,27,16,40,8.10
2017,11,27,16,41,8.10
2017,11,27,16,42,8.10
2017,11,27,16,43,8.10
2017,11,27,16,44,8.10
2017,11,27,16,45,8.10
2017,11,27,16,46,8.10
2017,11,27,16,47,8.10
2017,11,27,16,48,8.20
2017,11,27,16,49,8.20
2017,11,27,16,50,8.20
2017,11,27,16,51,8.20
2017,11,27,16,52,8.10
2017,11,27,16,53,8.10
2017,11,27,16,54,8.10
2017,11,27,16,55,8.10
2017,11,27,16,56,8.10
2017,11,27,16,57,8.10
2017,11,27,16,58,8.10
2017,11,27,16,59,8.10
2017,11,27,17,00,8.10
2017,11,27,17,01,8.10
2017,11,27,17,02,8.00
2017,11,27,17,03,8.00
2017,11,27,17,04,8.00
2017,11,27,17,05,7.90
2017,11,27,17,06,7.90
2017,11,27,17,07,7.90
2017,11,27,17,08,7.90
2017,11,27,17,09,7.90
2017,11,27,17,10,7.90
2017,11,27,17,11,7.90
2017,11,27,17,12,8.00
2017,11,27,17,13,8.00
2017,11,27,17,14,8.00
2017,11,27,17,15,8.00
2017,11,27,17,16,8.00
2017,11,27,17,17,8.00
2017,11,27,17,18,8.00
2017,11,27,17,19,8.00
2017,11,27,17,20,8.00
2017,11,27,17,21,8.10
2017,11,27,17,22,8.10
2017,11,27,17,23,8.10
2017,11,27,17,24,8.10
2017,11,27,17,25,8.10
2017,11,27,17,26,8.10
2017,11,27,17,27,8.10
2017,11,27,17,28,8.10
2017,11,27,17,29,8.10
2017,11,27,17,30,8.20
2017,11,27,17,31,8.20
2017,11,27,17,32,8.20
2017,11,27,17,33,8.20
2017,11,27,17,34,8.20
2017,11,27,17,35,8.20
2017,11,27,17,36,8.20
2017,11,27,17,37,8.20
2017,11,27,17,38,8.10
2017,11,27,17,39,8.20
2017,11,27,17,40,8.10
2017,11,27,17,41,8.10
2017,11,27,17,42,8.10
2017,11,27,17,43,8.10
2017,11,27,17,44,8.10
2017,11,27,17,45,8.10
2017,11,27,17,46,8.10
2017,11,27,17,47,8.10
2017,11,27,17,48,8.10
2017,11,27,17,49,8.10
2017,11,27,17,50,8.20
2017,11,27,17,51,8.10
2017,11,27,17,52,8.10
2017,11,27,17,53,8.10
2017,11,27,17,54,8.10
2017,11,27,17,55,8.10
2017,11,27,17,56,8.10
2017,11,27,17,57,8.10
2017,11,27,17,58,8.10
2017,11,27,17,59,8.10
2017,11,27,18,00,8.10
2017,11,27,18,01,8.10
2017,11,27,18,02,8.10
2017,11,27,18,03,8.10
2017,11,27,18,04,8.10
2017,11,27,18,05,8.10
2017,11,27,18,06,8.10